IBE121 LEBL-LEMH

Flight info

Callsign IBE121
Flight time 0h 33m
Altitude 19000
Route DUNES7Q DUNES Q700 SARGO SARGO5B
Aircraft A20N/M-SDE2E3FGHIRWXY/LB1

Departure

Time 2026-05-06 09:25
Airport Josep Tarradellas Barcelona-El Prat Airport (LEBL)

Arrival

Time 2026-05-06 09:58
Airport Menorca Airport (LEMH)
Time Latitude Longitude Altitude Speed Heading
2026-05-06 08:58 41.29010 2.06969 19 ft 0 kts 155°
2026-05-06 09:14 41.29017 2.06964 18 ft 4 kts 155°
2026-05-06 09:15 41.29042 2.06949 21 ft 4 kts 155°
2026-05-06 09:15 41.29066 2.06934 21 ft 4 kts 134°
2026-05-06 09:15 41.29069 2.06921 22 ft 3 kts 65°
2026-05-06 09:15 41.29062 2.06900 21 ft 0 kts 65°
2026-05-06 09:18 41.29065 2.06908 21 ft 2 kts 65°
2026-05-06 09:18 41.29094 2.06993 20 ft 11 kts 65°
2026-05-06 09:18 41.29133 2.07085 18 ft 9 kts 32°
2026-05-06 09:19 41.29197 2.07118 17 ft 12 kts 57°
2026-05-06 09:19 41.29242 2.07243 16 ft 19 kts 67°
2026-05-06 09:19 41.29304 2.07429 16 ft 24 kts 66°
2026-05-06 09:19 41.29371 2.07645 15 ft 25 kts 67°
2026-05-06 09:20 41.29444 2.07855 16 ft 25 kts 68°
2026-05-06 09:20 41.29519 2.08078 15 ft 27 kts 65°
2026-05-06 09:20 41.29571 2.08303 16 ft 23 kts 79°
2026-05-06 09:20 41.29625 2.08465 18 ft 17 kts 71°
2026-05-06 09:21 41.29593 2.08532 17 ft 13 kts 166°
2026-05-06 09:21 41.29498 2.08592 15 ft 18 kts 156°
2026-05-06 09:21 41.29340 2.08687 18 ft 20 kts 158°
2026-05-06 09:21 41.29205 2.08763 17 ft 23 kts 158°
2026-05-06 09:22 41.29055 2.08856 15 ft 25 kts 155°
2026-05-06 09:22 41.28946 2.08970 16 ft 12 kts 82°
2026-05-06 09:22 41.28973 2.09047 16 ft 16 kts 67°
2026-05-06 09:22 41.29028 2.09211 16 ft 23 kts 67°
2026-05-06 09:23 41.29099 2.09425 16 ft 27 kts 66°
2026-05-06 09:23 41.29181 2.09653 18 ft 28 kts 66°
2026-05-06 09:23 41.29265 2.09897 16 ft 30 kts 59°
2026-05-06 09:23 41.29353 2.10135 18 ft 28 kts 63°
2026-05-06 09:24 41.29295 2.10291 12 ft 22 kts 152°
2026-05-06 09:24 41.29200 2.10273 15 ft 13 kts 246°
2026-05-06 09:24 41.29087 2.09936 19 ft 76 kts 245°
2026-05-06 09:24 41.28776 2.09025 18 ft 137 kts 245°
2026-05-06 09:25 41.28354 2.07791 520 ft 139 kts 248°
2026-05-06 09:25 41.27952 2.06656 1283 ft 140 kts 232°
2026-05-06 09:25 41.27095 2.06047 1809 ft 150 kts 182°
2026-05-06 09:25 41.25997 2.06195 2243 ft 167 kts 175°
2026-05-06 09:26 41.24767 2.06292 2645 ft 188 kts 180°
2026-05-06 09:26 41.23367 2.06265 3059 ft 214 kts 184°
2026-05-06 09:26 41.21807 2.06242 3722 ft 236 kts 172°
2026-05-06 09:26 41.20243 2.07155 4427 ft 261 kts 142°
2026-05-06 09:27 41.19092 2.09122 5200 ft 279 kts 116°
2026-05-06 09:27 41.18385 2.11552 6267 ft 284 kts 109°
2026-05-06 09:27 41.17749 2.14026 7262 ft 289 kts 110°
2026-05-06 09:27 41.17027 2.16546 8282 ft 294 kts 113°
2026-05-06 09:28 41.16216 2.19069 9304 ft 300 kts 115°
2026-05-06 09:28 41.15341 2.21606 10266 ft 306 kts 116°
2026-05-06 09:28 41.14399 2.24254 10787 ft 329 kts 117°
2026-05-06 09:28 41.13378 2.27092 11195 ft 352 kts 117°
2026-05-06 09:29 41.12309 2.30063 11970 ft 360 kts 117°
2026-05-06 09:29 41.11226 2.33082 12175 ft 362 kts 117°
2026-05-06 09:29 41.10142 2.36103 12291 ft 363 kts 117°
2026-05-06 09:29 41.09057 2.39124 12398 ft 364 kts 117°
2026-05-06 09:30 41.07967 2.42156 12514 ft 364 kts 117°
2026-05-06 09:30 41.06876 2.45185 12623 ft 365 kts 117°
2026-05-06 09:30 41.05775 2.48242 12825 ft 369 kts 117°
2026-05-06 09:30 41.04665 2.51317 13699 ft 371 kts 117°
2026-05-06 09:31 41.03565 2.54372 14518 ft 375 kts 118°
2026-05-06 09:31 41.02430 2.57516 15252 ft 382 kts 118°
2026-05-06 09:31 41.01274 2.60716 16001 ft 388 kts 119°
2026-05-06 09:31 41.00100 2.63963 16751 ft 393 kts 120°
2026-05-06 09:32 40.98909 2.67251 17490 ft 399 kts 120°
2026-05-06 09:32 40.97700 2.70588 18226 ft 404 kts 121°
2026-05-06 09:32 40.96475 2.73966 18513 ft 408 kts 121°
2026-05-06 09:32 40.95247 2.77349 18616 ft 407 kts 121°
2026-05-06 09:33 40.94019 2.80729 18720 ft 408 kts 121°
2026-05-06 09:33 40.92784 2.84121 18813 ft 408 kts 121°
2026-05-06 09:33 40.91551 2.87505 18904 ft 409 kts 121°
2026-05-06 09:33 40.90315 2.90889 18973 ft 409 kts 121°
2026-05-06 09:34 40.89094 2.94230 18975 ft 409 kts 121°
2026-05-06 09:34 40.87841 2.97654 18974 ft 409 kts 121°
2026-05-06 09:34 40.86618 3.00990 18971 ft 408 kts 121°
2026-05-06 09:34 40.85377 3.04370 18970 ft 408 kts 121°
2026-05-06 09:35 40.84134 3.07750 18974 ft 408 kts 121°
2026-05-06 09:35 40.82893 3.11122 18975 ft 408 kts 121°
2026-05-06 09:35 40.81650 3.14495 18969 ft 408 kts 121°
2026-05-06 09:35 40.80408 3.17865 18971 ft 408 kts 121°
2026-05-06 09:36 40.79169 3.21221 18978 ft 407 kts 121°
2026-05-06 09:36 40.77926 3.24585 18976 ft 407 kts 121°
2026-05-06 09:36 40.76684 3.27942 18977 ft 407 kts 121°
2026-05-06 09:36 40.75439 3.31303 18976 ft 407 kts 121°
2026-05-06 09:37 40.74213 3.34609 18975 ft 407 kts 121°
2026-05-06 09:37 40.72966 3.37969 18979 ft 407 kts 121°
2026-05-06 09:37 40.71719 3.41327 18973 ft 407 kts 121°
2026-05-06 09:37 40.70475 3.44671 18976 ft 407 kts 121°
2026-05-06 09:38 40.69227 3.48023 18976 ft 407 kts 121°
2026-05-06 09:38 40.67980 3.51367 18975 ft 406 kts 121°
2026-05-06 09:38 40.66728 3.54721 18977 ft 406 kts 121°
2026-05-06 09:38 40.65480 3.58061 18974 ft 406 kts 121°
2026-05-06 09:39 40.64247 3.61356 18977 ft 406 kts 122°
2026-05-06 09:39 40.62998 3.64693 18977 ft 406 kts 122°
2026-05-06 09:39 40.61743 3.68039 18973 ft 406 kts 122°
2026-05-06 09:39 40.60498 3.71356 18970 ft 406 kts 122°
2026-05-06 09:40 40.59244 3.74696 18972 ft 406 kts 122°
2026-05-06 09:40 40.57992 3.78022 18973 ft 405 kts 121°
2026-05-06 09:40 40.55477 3.84695 18975 ft 405 kts 121°
2026-05-06 09:41 40.54235 3.87986 18975 ft 405 kts 121°
2026-05-06 09:41 40.52973 3.91325 18974 ft 405 kts 121°
2026-05-06 09:41 40.51723 3.94627 18977 ft 404 kts 122°
2026-05-06 09:41 40.50145 3.97655 18974 ft 394 kts 139°
2026-05-06 09:42 40.48063 3.99825 18976 ft 381 kts 157°
2026-05-06 09:42 40.45617 4.01090 18937 ft 370 kts 170°
2026-05-06 09:42 40.43150 4.01923 18263 ft 369 kts 172°
2026-05-06 09:42 40.40616 4.02692 16941 ft 378 kts 172°
2026-05-06 09:43 40.38044 4.03498 15787 ft 381 kts 171°
2026-05-06 09:43 40.35482 4.04352 14799 ft 378 kts 170°
2026-05-06 09:43 40.32946 4.05230 13974 ft 377 kts 170°
2026-05-06 09:43 40.30398 4.06127 13327 ft 373 kts 169°
2026-05-06 09:44 40.27913 4.07007 12788 ft 367 kts 169°
2026-05-06 09:44 40.25480 4.07873 12440 ft 355 kts 169°
2026-05-06 09:44 40.23145 4.08702 12098 ft 346 kts 169°
2026-05-06 09:44 40.20859 4.09512 11901 ft 332 kts 169°
2026-05-06 09:45 40.18680 4.10285 11762 ft 318 kts 169°
2026-05-06 09:45 40.16573 4.11030 11636 ft 304 kts 169°
2026-05-06 09:45 40.14557 4.11740 11317 ft 299 kts 169°
2026-05-06 09:45 40.12569 4.12435 10904 ft 297 kts 169°
2026-05-06 09:46 40.10575 4.13133 10509 ft 295 kts 169°
2026-05-06 09:46 40.08556 4.13563 10086 ft 287 kts 187°
2026-05-06 09:46 40.06681 4.12909 9628 ft 280 kts 212°
2026-05-06 09:46 40.05263 4.11254 9161 ft 275 kts 238°
2026-05-06 09:47 40.04584 4.08942 8878 ft 268 kts 257°
2026-05-06 09:47 40.04079 4.06631 8721 ft 267 kts 249°
2026-05-06 09:47 40.03259 4.04442 8483 ft 269 kts 239°
2026-05-06 09:47 40.02166 4.02481 8224 ft 267 kts 231°
2026-05-06 09:48 40.00881 4.00735 7976 ft 269 kts 224°
2026-05-06 09:48 39.99442 3.99163 7722 ft 269 kts 219°
2026-05-06 09:48 39.97893 3.97771 7465 ft 269 kts 214°
2026-05-06 09:48 39.96274 3.96573 7205 ft 268 kts 209°
2026-05-06 09:49 39.94565 3.95546 6957 ft 271 kts 204°
2026-05-06 09:49 39.92805 3.94719 6693 ft 270 kts 199°
2026-05-06 09:49 39.91003 3.94094 6439 ft 270 kts 194°
2026-05-06 09:49 39.89139 3.93668 6177 ft 270 kts 189°
2026-05-06 09:50 39.87271 3.93461 6035 ft 271 kts 184°
2026-05-06 09:50 39.85370 3.93464 5904 ft 271 kts 179°
2026-05-06 09:50 39.83497 3.93680 5770 ft 271 kts 174°
2026-05-06 09:50 39.81626 3.94112 5618 ft 272 kts 169°
2026-05-06 09:51 39.79803 3.94749 5376 ft 271 kts 163°
2026-05-06 09:51 39.78025 3.95595 5149 ft 271 kts 158°
2026-05-06 09:51 39.76321 3.96633 4867 ft 271 kts 153°
2026-05-06 09:51 39.74711 3.97847 4692 ft 267 kts 148°
2026-05-06 09:52 39.73177 3.99242 4563 ft 271 kts 143°
2026-05-06 09:52 39.71738 4.00806 4440 ft 269 kts 138°
2026-05-06 09:52 39.70408 4.02527 4311 ft 269 kts 133°
2026-05-06 09:52 39.69205 4.04373 4074 ft 270 kts 128°
2026-05-06 09:53 39.68111 4.06381 3706 ft 271 kts 123°
2026-05-06 09:53 39.67167 4.08481 3340 ft 269 kts 118°
2026-05-06 09:53 39.66373 4.10659 2979 ft 267 kts 112°
2026-05-06 09:53 39.65872 4.12985 2607 ft 264 kts 92°
2026-05-06 09:54 39.66156 4.15305 2249 ft 261 kts 66°
2026-05-06 09:54 39.67251 4.17088 2133 ft 255 kts 36°
2026-05-06 09:54 39.68819 4.18088 2033 ft 246 kts 17°
2026-05-06 09:54 39.70428 4.18588 1998 ft 233 kts 10°
2026-05-06 09:55 39.71976 4.18918 2000 ft 217 kts
2026-05-06 09:55 39.73420 4.19216 1996 ft 202 kts
2026-05-06 09:55 39.74745 4.19489 2020 ft 185 kts
2026-05-06 09:55 39.75946 4.19738 2002 ft 165 kts
2026-05-06 09:56 39.77028 4.19961 1926 ft 150 kts
2026-05-06 09:56 39.78021 4.20166 1727 ft 139 kts
2026-05-06 09:56 39.78933 4.20355 1540 ft 129 kts
2026-05-06 09:56 39.79847 4.20543 1368 ft 132 kts
2026-05-06 09:57 39.80737 4.20727 1191 ft 130 kts
2026-05-06 09:57 39.81631 4.20912 1018 ft 130 kts 10°
2026-05-06 09:57 39.82518 4.21093 840 ft 128 kts 10°
2026-05-06 09:57 39.83408 4.21273 720 ft 128 kts 10°
2026-05-06 09:58 39.84289 4.21439 502 ft 126 kts 11°
2026-05-06 09:58 39.85139 4.21623 337 ft 126 kts 11°
2026-05-06 09:58 39.85956 4.21803 301 ft 92 kts
2026-05-06 09:58 39.86253 4.21865 302 ft 46 kts
2026-05-06 09:59 39.86527 4.21921 306 ft 32 kts
2026-05-06 09:59 39.86566 4.22042 301 ft 14 kts 97°
2026-05-06 09:59 39.86548 4.22196 294 ft 20 kts 98°
2026-05-06 09:59 39.86500 4.22321 290 ft 10 kts 176°
2026-05-06 10:00 39.86471 4.22372 286 ft 8 kts 101°
2026-05-06 10:00 39.86468 4.22403 288 ft 0 kts 98°
2026-05-06 10:00 39.86468 4.22404 292 ft 0 kts 98°